Year,Month,Day,Hour,Minute,Value (Times are PST for barometer in hPa)
2015,01,17,00,00,990.59
2015,01,17,00,01,990.55
2015,01,17,00,02,990.55
2015,01,17,00,03,990.55
2015,01,17,00,04,990.55
2015,01,17,00,05,990.55
2015,01,17,00,06,990.55
2015,01,17,00,07,990.55
2015,01,17,00,08,990.55
2015,01,17,00,09,990.55
2015,01,17,00,10,990.55
2015,01,17,00,11,990.55
2015,01,17,00,12,990.55
2015,01,17,00,13,990.55
2015,01,17,00,14,990.55
2015,01,17,00,15,990.55
2015,01,17,00,16,990.04
2015,01,17,00,17,990.04
2015,01,17,00,18,990.04
2015,01,17,00,19,990.04
2015,01,17,00,20,990.04
2015,01,17,00,21,990.04
2015,01,17,00,22,990.04
2015,01,17,00,23,990.04
2015,01,17,00,24,990.04
2015,01,17,00,25,990.04
2015,01,17,00,26,990.04
2015,01,17,00,27,990.04
2015,01,17,00,28,990.04
2015,01,17,00,29,990.04
2015,01,17,00,30,990.04
2015,01,17,00,31,989.81
2015,01,17,00,32,989.81
2015,01,17,00,33,989.81
2015,01,17,00,34,989.81
2015,01,17,00,35,989.81
2015,01,17,00,36,989.81
2015,01,17,00,37,989.81
2015,01,17,00,38,989.81
2015,01,17,00,39,989.81
2015,01,17,00,40,989.81
2015,01,17,00,41,989.81
2015,01,17,00,42,989.81
2015,01,17,00,43,989.81
2015,01,17,00,44,989.81
2015,01,17,00,45,989.81
2015,01,17,00,46,989.57
2015,01,17,00,47,989.57
2015,01,17,00,48,989.57
2015,01,17,00,49,989.57
2015,01,17,00,50,989.57
2015,01,17,00,51,989.57
2015,01,17,00,52,989.57
2015,01,17,00,53,989.57
2015,01,17,00,54,989.57
2015,01,17,00,55,989.57
2015,01,17,00,56,989.57
2015,01,17,00,57,989.57
2015,01,17,00,58,989.57
2015,01,17,00,59,989.57
2015,01,17,01,00,989.57
2015,01,17,01,01,989.54
2015,01,17,01,02,989.54
2015,01,17,01,03,989.54
2015,01,17,01,04,989.54
2015,01,17,01,05,989.54
2015,01,17,01,06,989.54
2015,01,17,01,07,989.54
2015,01,17,01,08,989.54
2015,01,17,01,09,989.54
2015,01,17,01,10,989.54
2015,01,17,01,11,989.54
2015,01,17,01,12,989.54
2015,01,17,01,13,989.54
2015,01,17,01,14,989.54
2015,01,17,01,15,989.54
2015,01,17,01,16,989.10
2015,01,17,01,17,989.10
2015,01,17,01,18,989.10
2015,01,17,01,19,989.10
2015,01,17,01,20,989.10
2015,01,17,01,21,989.10
2015,01,17,01,22,989.10
2015,01,17,01,23,989.10
2015,01,17,01,24,989.10
2015,01,17,01,25,989.10
2015,01,17,01,26,989.10
2015,01,17,01,27,989.10
2015,01,17,01,28,989.10
2015,01,17,01,29,989.10
2015,01,17,01,30,989.10
2015,01,17,01,31,989.03
2015,01,17,01,32,989.03
2015,01,17,01,33,989.03
2015,01,17,01,34,989.03
2015,01,17,01,35,989.03
2015,01,17,01,36,989.03
2015,01,17,01,37,989.03
2015,01,17,01,38,989.03
2015,01,17,01,39,989.03
2015,01,17,01,40,989.03
2015,01,17,01,41,989.03
2015,01,17,01,42,989.03
2015,01,17,01,43,989.03
2015,01,17,01,44,989.03
2015,01,17,01,45,989.03
2015,01,17,01,46,988.96
2015,01,17,01,47,988.96
2015,01,17,01,48,988.96
2015,01,17,01,49,988.96
2015,01,17,01,50,988.96
2015,01,17,01,51,988.96
2015,01,17,01,52,988.96
2015,01,17,01,53,988.96
2015,01,17,01,54,988.96
2015,01,17,01,55,988.96
2015,01,17,01,56,988.96
2015,01,17,01,57,988.96
2015,01,17,01,58,988.96
2015,01,17,01,59,988.96
2015,01,17,02,00,988.96
2015,01,17,02,01,988.69
2015,01,17,02,02,988.69
2015,01,17,02,03,988.69
2015,01,17,02,04,988.69
2015,01,17,02,05,988.69
2015,01,17,02,06,988.69
2015,01,17,02,07,988.69
2015,01,17,02,08,988.69
2015,01,17,02,09,988.69
2015,01,17,02,10,988.69
2015,01,17,02,11,988.69
2015,01,17,02,12,988.69
2015,01,17,02,13,988.69
2015,01,17,02,14,988.69
2015,01,17,02,15,988.69
2015,01,17,02,16,988.45
2015,01,17,02,17,988.45
2015,01,17,02,18,988.45
2015,01,17,02,19,988.45
2015,01,17,02,20,988.45
2015,01,17,02,21,988.45
2015,01,17,02,22,988.45
2015,01,17,02,23,988.45
2015,01,17,02,24,988.45
2015,01,17,02,25,988.45
2015,01,17,02,26,988.45
2015,01,17,02,27,988.45
2015,01,17,02,28,988.45
2015,01,17,02,29,988.45
2015,01,17,02,30,988.45
2015,01,17,02,31,988.45
2015,01,17,02,32,988.45
2015,01,17,02,33,988.45
2015,01,17,02,34,988.45
2015,01,17,02,35,988.45
2015,01,17,02,36,988.45
2015,01,17,02,37,988.45
2015,01,17,02,38,988.45
2015,01,17,02,39,988.45
2015,01,17,02,40,988.45
2015,01,17,02,41,988.45
2015,01,17,02,42,988.45
2015,01,17,02,43,988.45
2015,01,17,02,44,988.45
2015,01,17,02,45,988.45
2015,01,17,02,46,988.45
2015,01,17,02,47,988.45
2015,01,17,02,48,988.45
2015,01,17,02,49,988.45
2015,01,17,02,50,988.45
2015,01,17,02,51,988.45
2015,01,17,02,52,988.45
2015,01,17,02,53,988.45
2015,01,17,02,54,988.45
2015,01,17,02,55,988.45
2015,01,17,02,56,988.45
2015,01,17,02,57,988.45
2015,01,17,02,58,988.45
2015,01,17,02,59,988.45
2015,01,17,03,00,988.45
2015,01,17,03,01,988.52
2015,01,17,03,02,988.52
2015,01,17,03,03,988.52
2015,01,17,03,04,988.52
2015,01,17,03,05,988.52
2015,01,17,03,06,988.52
2015,01,17,03,07,988.52
2015,01,17,03,08,988.52
2015,01,17,03,09,988.52
2015,01,17,03,10,988.52
2015,01,17,03,11,988.52
2015,01,17,03,12,988.52
2015,01,17,03,13,988.52
2015,01,17,03,14,988.52
2015,01,17,03,15,988.52
2015,01,17,03,16,988.49
2015,01,17,03,17,988.49
2015,01,17,03,18,988.49
2015,01,17,03,19,988.49
2015,01,17,03,20,988.49
2015,01,17,03,21,988.49
2015,01,17,03,22,988.49
2015,01,17,03,23,988.49
2015,01,17,03,24,988.49
2015,01,17,03,25,988.49
2015,01,17,03,26,988.49
2015,01,17,03,27,988.49
2015,01,17,03,28,988.49
2015,01,17,03,29,988.49
2015,01,17,03,30,988.49
2015,01,17,03,31,987.98
2015,01,17,03,32,987.98
2015,01,17,03,33,987.98
2015,01,17,03,34,987.98
2015,01,17,03,35,987.98
2015,01,17,03,36,987.98
2015,01,17,03,37,987.98
2015,01,17,03,38,987.98
2015,01,17,03,39,987.98
2015,01,17,03,40,987.98
2015,01,17,03,41,987.98
2015,01,17,03,42,987.98
2015,01,17,03,43,987.98
2015,01,17,03,44,987.98
2015,01,17,03,45,987.98
2015,01,17,03,46,987.94
2015,01,17,03,47,987.94
2015,01,17,03,48,987.94
2015,01,17,03,49,987.94
2015,01,17,03,50,987.94
2015,01,17,03,51,987.94
2015,01,17,03,52,987.94
2015,01,17,03,53,987.94
2015,01,17,03,54,987.94
2015,01,17,03,55,987.94
2015,01,17,03,56,987.94
2015,01,17,03,57,987.94
2015,01,17,03,58,987.94
2015,01,17,03,59,987.94
2015,01,17,04,00,987.94
2015,01,17,04,01,987.67
2015,01,17,04,02,987.67
2015,01,17,04,03,987.67
2015,01,17,04,04,987.67
2015,01,17,04,05,987.67
2015,01,17,04,06,987.67
2015,01,17,04,07,987.67
2015,01,17,04,08,987.67
2015,01,17,04,09,987.67
2015,01,17,04,10,987.67
2015,01,17,04,11,987.67
2015,01,17,04,12,987.67
2015,01,17,04,13,987.67
2015,01,17,04,14,987.67
2015,01,17,04,15,987.67
2015,01,17,04,16,987.37
2015,01,17,04,17,987.37
2015,01,17,04,18,987.37
2015,01,17,04,19,987.37
2015,01,17,04,20,987.37
2015,01,17,04,21,987.37
2015,01,17,04,22,987.37
2015,01,17,04,23,987.37
2015,01,17,04,24,987.37
2015,01,17,04,25,987.37
2015,01,17,04,26,987.37
2015,01,17,04,27,987.37
2015,01,17,04,28,987.37
2015,01,17,04,29,987.37
2015,01,17,04,30,987.37
2015,01,17,04,31,986.69
2015,01,17,04,32,986.69
2015,01,17,04,33,986.69
2015,01,17,04,34,986.69
2015,01,17,04,35,986.69
2015,01,17,04,36,986.69
2015,01,17,04,37,986.69
2015,01,17,04,38,986.69
2015,01,17,04,39,986.69
2015,01,17,04,40,986.69
2015,01,17,04,41,986.69
2015,01,17,04,42,986.69
2015,01,17,04,43,986.69
2015,01,17,04,44,986.69
2015,01,17,04,45,986.69
2015,01,17,04,46,986.89
2015,01,17,04,47,986.89
2015,01,17,04,48,986.89
2015,01,17,04,49,986.89
2015,01,17,04,50,986.89
2015,01,17,04,51,986.89
2015,01,17,04,52,986.89
2015,01,17,04,53,986.89
2015,01,17,04,54,986.89
2015,01,17,04,55,986.89
2015,01,17,04,56,986.89
2015,01,17,04,57,986.89
2015,01,17,04,58,986.89
2015,01,17,04,59,986.89
2015,01,17,05,00,986.89
2015,01,17,05,01,986.93
2015,01,17,05,02,986.93
2015,01,17,05,03,986.93
2015,01,17,05,04,986.93
2015,01,17,05,05,986.93
2015,01,17,05,06,986.93
2015,01,17,05,07,986.93
2015,01,17,05,08,986.93
2015,01,17,05,09,986.93
2015,01,17,05,10,986.93
2015,01,17,05,11,986.93
2015,01,17,05,12,986.93
2015,01,17,05,13,986.93
2015,01,17,05,14,986.93
2015,01,17,05,15,986.93
2015,01,17,05,16,986.66
2015,01,17,05,17,986.66
2015,01,17,05,18,986.66
2015,01,17,05,19,986.66
2015,01,17,05,20,986.66
2015,01,17,05,21,986.66
2015,01,17,05,22,986.66
2015,01,17,05,23,986.66
2015,01,17,05,24,986.66
2015,01,17,05,25,986.66
2015,01,17,05,26,986.66
2015,01,17,05,27,986.66
2015,01,17,05,28,986.66
2015,01,17,05,29,986.66
2015,01,17,05,30,986.66
2015,01,17,05,31,986.86
2015,01,17,05,32,986.86
2015,01,17,05,33,986.86
2015,01,17,05,34,986.86
2015,01,17,05,35,986.86
2015,01,17,05,36,986.86
2015,01,17,05,37,986.86
2015,01,17,05,38,986.86
2015,01,17,05,39,986.86
2015,01,17,05,40,986.86
2015,01,17,05,41,986.86
2015,01,17,05,42,986.86
2015,01,17,05,43,986.86
2015,01,17,05,44,986.86
2015,01,17,05,45,986.86
2015,01,17,05,46,986.89
2015,01,17,05,47,986.89
2015,01,17,05,48,986.89
2015,01,17,05,49,986.89
2015,01,17,05,50,986.89
2015,01,17,05,51,986.89
2015,01,17,05,52,986.89
2015,01,17,05,53,986.89
2015,01,17,05,54,986.89
2015,01,17,05,55,986.89
2015,01,17,05,56,986.89
2015,01,17,05,57,986.89
2015,01,17,05,58,986.89
2015,01,17,05,59,986.89
2015,01,17,06,00,986.89
2015,01,17,06,01,986.89
2015,01,17,06,02,986.22
2015,01,17,06,03,986.22
2015,01,17,06,04,986.22
2015,01,17,06,05,986.22
2015,01,17,06,06,986.22
2015,01,17,06,07,986.22
2015,01,17,06,08,986.22
2015,01,17,06,09,986.22
2015,01,17,06,10,986.22
2015,01,17,06,11,986.22
2015,01,17,06,12,986.22
2015,01,17,06,13,986.22
2015,01,17,06,14,986.22
2015,01,17,06,15,986.22
2015,01,17,06,16,986.22
2015,01,17,06,17,985.84
2015,01,17,06,18,985.84
2015,01,17,06,19,985.84
2015,01,17,06,20,985.84
2015,01,17,06,21,985.84
2015,01,17,06,22,985.84
2015,01,17,06,23,985.84
2015,01,17,06,24,985.84
2015,01,17,06,25,985.84
2015,01,17,06,26,985.84
2015,01,17,06,27,985.84
2015,01,17,06,28,985.84
2015,01,17,06,29,985.84
2015,01,17,06,30,985.84
2015,01,17,06,31,985.84
2015,01,17,06,32,985.78
2015,01,17,06,33,985.78
2015,01,17,06,34,985.78
2015,01,17,06,35,985.78
2015,01,17,06,36,985.78
2015,01,17,06,37,985.78
2015,01,17,06,38,985.78
2015,01,17,06,39,985.78
2015,01,17,06,40,985.78
2015,01,17,06,41,985.78
2015,01,17,06,42,985.78
2015,01,17,06,43,985.78
2015,01,17,06,44,985.78
2015,01,17,06,45,985.78
2015,01,17,06,46,985.78
2015,01,17,06,47,985.44
2015,01,17,06,48,985.44
2015,01,17,06,49,985.44
2015,01,17,06,50,985.44
2015,01,17,06,51,985.44
2015,01,17,06,52,985.44
2015,01,17,06,53,985.44
2015,01,17,06,54,985.44
2015,01,17,06,55,985.44
2015,01,17,06,56,985.44
2015,01,17,06,57,985.44
2015,01,17,06,58,985.44
2015,01,17,06,59,985.44
2015,01,17,07,00,985.44
2015,01,17,07,01,985.44
2015,01,17,07,02,985.64
2015,01,17,07,03,985.64
2015,01,17,07,04,985.64
2015,01,17,07,05,985.64
2015,01,17,07,06,985.64
2015,01,17,07,07,985.64
2015,01,17,07,08,985.64
2015,01,17,07,09,985.64
2015,01,17,07,10,985.64
2015,01,17,07,11,985.64
2015,01,17,07,12,985.64
2015,01,17,07,13,985.64
2015,01,17,07,14,985.64
2015,01,17,07,15,985.64
2015,01,17,07,16,985.64
2015,01,17,07,17,985.37
2015,01,17,07,18,985.37
2015,01,17,07,19,985.37
2015,01,17,07,20,985.37
2015,01,17,07,21,985.37
2015,01,17,07,22,985.37
2015,01,17,07,23,985.37
2015,01,17,07,24,985.37
2015,01,17,07,25,985.37
2015,01,17,07,26,985.37
2015,01,17,07,27,985.37
2015,01,17,07,28,985.37
2015,01,17,07,29,985.37
2015,01,17,07,30,985.37
2015,01,17,07,31,985.37
2015,01,17,07,32,985.30
2015,01,17,07,33,985.30
2015,01,17,07,34,985.30
2015,01,17,07,35,985.30
2015,01,17,07,36,985.30
2015,01,17,07,37,985.30
2015,01,17,07,38,985.30
2015,01,17,07,39,985.30
2015,01,17,07,40,985.30
2015,01,17,07,41,985.30
2015,01,17,07,42,985.30
2015,01,17,07,43,985.30
2015,01,17,07,44,985.30
2015,01,17,07,45,985.30
2015,01,17,07,46,985.30
2015,01,17,07,47,985.13
2015,01,17,07,48,985.13
2015,01,17,07,49,985.13
2015,01,17,07,50,985.13
2015,01,17,07,51,985.13
2015,01,17,07,52,985.13
2015,01,17,07,53,985.13
2015,01,17,07,54,985.13
2015,01,17,07,55,985.13
2015,01,17,07,56,985.13
2015,01,17,07,57,985.13
2015,01,17,07,58,985.13
2015,01,17,07,59,985.13
2015,01,17,08,00,985.13
2015,01,17,08,01,985.13
2015,01,17,08,02,985.07
2015,01,17,08,03,985.07
2015,01,17,08,04,985.07
2015,01,17,08,05,985.07
2015,01,17,08,06,985.07
2015,01,17,08,07,985.07
2015,01,17,08,08,985.07
2015,01,17,08,09,985.07
2015,01,17,08,10,985.07
2015,01,17,08,11,985.07
2015,01,17,08,12,985.07
2015,01,17,08,13,985.07
2015,01,17,08,14,985.07
2015,01,17,08,15,985.07
2015,01,17,08,16,985.07
2015,01,17,08,17,984.86
2015,01,17,08,18,984.86
2015,01,17,08,19,984.86
2015,01,17,08,20,984.86
2015,01,17,08,21,984.86
2015,01,17,08,22,984.86
2015,01,17,08,23,984.86
2015,01,17,08,24,984.86
2015,01,17,08,25,984.86
2015,01,17,08,26,984.86
2015,01,17,08,27,984.86
2015,01,17,08,28,984.86
2015,01,17,08,29,984.86
2015,01,17,08,30,984.86
2015,01,17,08,31,984.86
2015,01,17,08,32,984.86
2015,01,17,08,33,984.86
2015,01,17,08,34,984.86
2015,01,17,08,35,984.86
2015,01,17,08,36,984.86
2015,01,17,08,37,984.86
2015,01,17,08,38,984.86
2015,01,17,08,39,984.86
2015,01,17,08,40,984.86
2015,01,17,08,41,984.86
2015,01,17,08,42,984.86
2015,01,17,08,43,984.86
2015,01,17,08,44,984.86
2015,01,17,08,45,984.86
2015,01,17,08,46,984.86
2015,01,17,08,47,984.83
2015,01,17,08,48,984.83
2015,01,17,08,49,984.83
2015,01,17,08,50,984.83
2015,01,17,08,51,984.83
2015,01,17,08,52,984.83
2015,01,17,08,53,984.83
2015,01,17,08,54,984.83
2015,01,17,08,55,984.83
2015,01,17,08,56,984.83
2015,01,17,08,57,984.83
2015,01,17,08,58,984.83
2015,01,17,08,59,984.83
2015,01,17,09,00,984.83
2015,01,17,09,01,984.83
2015,01,17,09,02,984.86
2015,01,17,09,03,984.86
2015,01,17,09,04,984.86
2015,01,17,09,05,984.86
2015,01,17,09,06,984.86
2015,01,17,09,07,984.86
2015,01,17,09,08,984.86
2015,01,17,09,09,984.86
2015,01,17,09,10,984.86
2015,01,17,09,11,984.86
2015,01,17,09,12,984.86
2015,01,17,09,13,984.86
2015,01,17,09,14,984.86
2015,01,17,09,15,984.86
2015,01,17,09,16,984.86
2015,01,17,09,17,985.07
2015,01,17,09,18,985.07
2015,01,17,09,19,985.07
2015,01,17,09,20,985.07
2015,01,17,09,21,985.07
2015,01,17,09,22,985.07
2015,01,17,09,23,985.07
2015,01,17,09,24,985.07
2015,01,17,09,25,985.07
2015,01,17,09,26,985.07
2015,01,17,09,27,985.07
2015,01,17,09,28,985.07
2015,01,17,09,29,985.07
2015,01,17,09,30,985.07
2015,01,17,09,31,985.07
2015,01,17,09,32,984.83
2015,01,17,09,33,984.83
2015,01,17,09,34,984.83
2015,01,17,09,35,984.83
2015,01,17,09,36,984.83
2015,01,17,09,37,984.83
2015,01,17,09,38,984.83
2015,01,17,09,39,984.83
2015,01,17,09,40,984.83
2015,01,17,09,41,984.83
2015,01,17,09,42,984.83
2015,01,17,09,43,984.83
2015,01,17,09,44,984.83
2015,01,17,09,45,984.83
2015,01,17,09,46,984.83
2015,01,17,09,47,984.83
2015,01,17,09,48,984.83
2015,01,17,09,49,984.83
2015,01,17,09,50,984.83
2015,01,17,09,51,984.83
2015,01,17,09,52,984.83
2015,01,17,09,53,984.83
2015,01,17,09,54,984.83
2015,01,17,09,55,984.83
2015,01,17,09,56,984.83
2015,01,17,09,57,984.83
2015,01,17,09,58,984.83
2015,01,17,09,59,984.83
2015,01,17,10,00,984.83
2015,01,17,10,01,984.83
2015,01,17,10,02,984.69
2015,01,17,10,03,984.69
2015,01,17,10,04,984.69
2015,01,17,10,05,984.69
2015,01,17,10,06,984.69
2015,01,17,10,07,984.69
2015,01,17,10,08,984.69
2015,01,17,10,09,984.69
2015,01,17,10,10,984.69
2015,01,17,10,11,984.69
2015,01,17,10,12,984.69
2015,01,17,10,13,984.69
2015,01,17,10,14,984.69
2015,01,17,10,15,984.69
2015,01,17,10,16,984.69
2015,01,17,10,17,984.46
2015,01,17,10,18,984.46
2015,01,17,10,19,984.46
2015,01,17,10,20,984.46
2015,01,17,10,21,984.46
2015,01,17,10,22,984.46
2015,01,17,10,23,984.46
2015,01,17,10,24,984.46
2015,01,17,10,25,984.46
2015,01,17,10,26,984.46
2015,01,17,10,27,984.46
2015,01,17,10,28,984.46
2015,01,17,10,29,984.46
2015,01,17,10,30,984.46
2015,01,17,10,31,984.46
2015,01,17,10,32,984.52
2015,01,17,10,33,984.52
2015,01,17,10,34,984.52
2015,01,17,10,35,984.52
2015,01,17,10,36,984.52
2015,01,17,10,37,984.52
2015,01,17,10,38,984.52
2015,01,17,10,39,984.52
2015,01,17,10,40,984.52
2015,01,17,10,41,984.52
2015,01,17,10,42,984.52
2015,01,17,10,43,984.52
2015,01,17,10,44,984.52
2015,01,17,10,45,984.52
2015,01,17,10,46,984.52
2015,01,17,10,47,984.49
2015,01,17,10,48,984.49
2015,01,17,10,49,984.49
2015,01,17,10,50,984.49
2015,01,17,10,51,984.49
2015,01,17,10,52,984.49
2015,01,17,10,53,984.49
2015,01,17,10,54,984.49
2015,01,17,10,55,984.49
2015,01,17,10,56,984.49
2015,01,17,10,57,984.49
2015,01,17,10,58,984.49
2015,01,17,10,59,984.49
2015,01,17,11,00,984.49
2015,01,17,11,01,984.49
2015,01,17,11,02,984.32
2015,01,17,11,03,984.32
2015,01,17,11,04,984.32
2015,01,17,11,05,984.32
2015,01,17,11,06,984.32
2015,01,17,11,07,984.32
2015,01,17,11,08,984.32
2015,01,17,11,09,984.32
2015,01,17,11,10,984.32
2015,01,17,11,11,984.32
2015,01,17,11,12,984.32
2015,01,17,11,13,984.32
2015,01,17,11,14,984.32
2015,01,17,11,15,984.32
2015,01,17,11,16,984.32
2015,01,17,11,17,983.78
2015,01,17,11,18,983.78
2015,01,17,11,19,983.78
2015,01,17,11,20,983.78
2015,01,17,11,21,983.78
2015,01,17,11,22,983.78
2015,01,17,11,23,983.78
2015,01,17,11,24,983.78
2015,01,17,11,25,983.78
2015,01,17,11,26,983.78
2015,01,17,11,27,983.78
2015,01,17,11,28,983.78
2015,01,17,11,29,983.78
2015,01,17,11,30,983.78
2015,01,17,11,31,983.78
2015,01,17,11,32,983.27
2015,01,17,11,33,983.27
2015,01,17,11,34,983.27
2015,01,17,11,35,983.27
2015,01,17,11,36,983.27
2015,01,17,11,37,983.27
2015,01,17,11,38,983.27
2015,01,17,11,39,983.27
2015,01,17,11,40,983.27
2015,01,17,11,41,983.27
2015,01,17,11,42,983.27
2015,01,17,11,43,983.27
2015,01,17,11,44,983.27
2015,01,17,11,45,983.27
2015,01,17,11,46,983.27
2015,01,17,11,47,982.90
2015,01,17,11,48,982.90
2015,01,17,11,49,982.90
2015,01,17,11,50,982.90
2015,01,17,11,51,982.90
2015,01,17,11,52,982.90
2015,01,17,11,53,982.90
2015,01,17,11,54,982.90
2015,01,17,11,55,982.90
2015,01,17,11,56,982.90
2015,01,17,11,57,982.90
2015,01,17,11,58,982.90
2015,01,17,11,59,982.90
2015,01,17,12,00,982.90
2015,01,17,12,01,982.90
2015,01,17,12,02,983.00
2015,01,17,12,03,983.00
2015,01,17,12,04,983.00
2015,01,17,12,05,983.00
2015,01,17,12,06,983.00
2015,01,17,12,07,983.00
2015,01,17,12,08,983.00
2015,01,17,12,09,983.00
2015,01,17,12,10,983.00
2015,01,17,12,11,983.00
2015,01,17,12,12,983.00
2015,01,17,12,13,983.00
2015,01,17,12,14,983.00
2015,01,17,12,15,983.00
2015,01,17,12,16,983.00
2015,01,17,12,17,982.73
2015,01,17,12,18,982.73
2015,01,17,12,19,982.73
2015,01,17,12,20,982.73
2015,01,17,12,21,982.73
2015,01,17,12,22,982.73
2015,01,17,12,23,982.73
2015,01,17,12,24,982.73
2015,01,17,12,25,982.73
2015,01,17,12,26,982.73
2015,01,17,12,27,982.73
2015,01,17,12,28,982.73
2015,01,17,12,29,982.73
2015,01,17,12,30,982.73
2015,01,17,12,31,982.73
2015,01,17,12,32,982.46
2015,01,17,12,33,982.46
2015,01,17,12,34,982.46
2015,01,17,12,35,982.46
2015,01,17,12,36,982.46
2015,01,17,12,37,982.46
2015,01,17,12,38,982.46
2015,01,17,12,39,982.46
2015,01,17,12,40,982.46
2015,01,17,12,41,982.46
2015,01,17,12,42,982.46
2015,01,17,12,43,982.46
2015,01,17,12,44,982.46
2015,01,17,12,45,982.46
2015,01,17,12,46,982.46
2015,01,17,12,47,982.19
2015,01,17,12,48,982.19
2015,01,17,12,49,982.19
2015,01,17,12,50,982.19
2015,01,17,12,51,982.19
2015,01,17,12,52,982.19
2015,01,17,12,53,982.19
2015,01,17,12,54,982.19
2015,01,17,12,55,982.19
2015,01,17,12,56,982.19
2015,01,17,12,57,982.19
2015,01,17,12,58,982.19
2015,01,17,12,59,982.19
2015,01,17,13,00,982.19
2015,01,17,13,01,982.19
2015,01,17,13,02,981.75
2015,01,17,13,03,981.75
2015,01,17,13,04,981.75
2015,01,17,13,05,981.75
2015,01,17,13,06,981.75
2015,01,17,13,07,981.75
2015,01,17,13,08,981.75
2015,01,17,13,09,981.75
2015,01,17,13,10,981.75
2015,01,17,13,11,981.75
2015,01,17,13,12,981.75
2015,01,17,13,13,981.75
2015,01,17,13,14,981.75
2015,01,17,13,15,981.75
2015,01,17,13,16,981.75
2015,01,17,13,17,981.51
2015,01,17,13,18,981.51
2015,01,17,13,19,981.51
2015,01,17,13,20,981.51
2015,01,17,13,21,981.51
2015,01,17,13,22,981.51
2015,01,17,13,23,981.51
2015,01,17,13,24,981.51
2015,01,17,13,25,981.51
2015,01,17,13,26,981.51
2015,01,17,13,27,981.51
2015,01,17,13,28,981.51
2015,01,17,13,29,981.51
2015,01,17,13,30,981.51
2015,01,17,13,31,981.51
2015,01,17,13,32,981.31
2015,01,17,13,33,981.31
2015,01,17,13,34,981.31
2015,01,17,13,35,981.31
2015,01,17,13,36,981.31
2015,01,17,13,37,981.31
2015,01,17,13,38,981.31
2015,01,17,13,39,981.31
2015,01,17,13,40,981.31
2015,01,17,13,41,981.31
2015,01,17,13,42,981.31
2015,01,17,13,43,981.31
2015,01,17,13,44,981.31
2015,01,17,13,45,981.31
2015,01,17,13,46,981.31
2015,01,17,13,47,980.93
2015,01,17,13,48,980.93
2015,01,17,13,49,980.93
2015,01,17,13,50,980.93
2015,01,17,13,51,980.93
2015,01,17,13,52,980.93
2015,01,17,13,53,980.93
2015,01,17,13,54,980.93
2015,01,17,13,55,980.93
2015,01,17,13,56,980.93
2015,01,17,13,57,980.93
2015,01,17,13,58,980.93
2015,01,17,13,59,980.93
2015,01,17,14,00,980.93
2015,01,17,14,01,980.93
2015,01,17,14,02,980.70
2015,01,17,14,03,980.70
2015,01,17,14,04,980.70
2015,01,17,14,05,980.70
2015,01,17,14,06,980.70
2015,01,17,14,07,980.70
2015,01,17,14,08,980.70
2015,01,17,14,09,980.70
2015,01,17,14,10,980.70
2015,01,17,14,11,980.70
2015,01,17,14,12,980.70
2015,01,17,14,13,980.70
2015,01,17,14,14,980.70
2015,01,17,14,15,980.70
2015,01,17,14,16,980.70
2015,01,17,14,17,980.63
2015,01,17,14,18,980.63
2015,01,17,14,19,980.63
2015,01,17,14,20,980.63
2015,01,17,14,21,980.63
2015,01,17,14,22,980.63
2015,01,17,14,23,980.63
2015,01,17,14,24,980.63
2015,01,17,14,25,980.63
2015,01,17,14,26,980.63
2015,01,17,14,27,980.63
2015,01,17,14,28,980.63
2015,01,17,14,29,980.63
2015,01,17,14,30,980.63
2015,01,17,14,31,980.63
2015,01,17,14,32,980.56
2015,01,17,14,33,980.56
2015,01,17,14,34,980.56
2015,01,17,14,35,980.56
2015,01,17,14,36,980.56
2015,01,17,14,37,980.56
2015,01,17,14,38,980.56
2015,01,17,14,39,980.56
2015,01,17,14,40,980.56
2015,01,17,14,41,980.56
2015,01,17,14,42,980.56
2015,01,17,14,43,980.56
2015,01,17,14,44,980.56
2015,01,17,14,45,980.56
2015,01,17,14,46,980.56
2015,01,17,14,47,980.02
2015,01,17,14,48,980.02
2015,01,17,14,49,980.02
2015,01,17,14,50,980.02
2015,01,17,14,51,980.02
2015,01,17,14,52,980.02
2015,01,17,14,53,980.02
2015,01,17,14,54,980.02
2015,01,17,14,55,980.02
2015,01,17,14,56,980.02
2015,01,17,14,57,980.02
2015,01,17,14,58,980.02
2015,01,17,14,59,980.02
2015,01,17,15,00,980.02
2015,01,17,15,01,980.02
2015,01,17,15,02,979.78
2015,01,17,15,03,979.78
2015,01,17,15,04,979.78
2015,01,17,15,05,979.78
2015,01,17,15,06,979.78
2015,01,17,15,07,979.78
2015,01,17,15,08,979.78
2015,01,17,15,09,979.78
2015,01,17,15,10,979.78
2015,01,17,15,11,979.78
2015,01,17,15,12,979.78
2015,01,17,15,13,979.78
2015,01,17,15,14,979.78
2015,01,17,15,15,979.78
2015,01,17,15,16,979.78
2015,01,17,15,17,979.61
2015,01,17,15,18,979.61
2015,01,17,15,19,979.61
2015,01,17,15,20,979.61
2015,01,17,15,21,979.61
2015,01,17,15,22,979.61
2015,01,17,15,23,979.61
2015,01,17,15,24,979.61
2015,01,17,15,25,979.61
2015,01,17,15,26,979.61
2015,01,17,15,27,979.61
2015,01,17,15,28,979.61
2015,01,17,15,29,979.61
2015,01,17,15,30,979.61
2015,01,17,15,31,979.61
2015,01,17,15,32,979.51
2015,01,17,15,33,979.51
2015,01,17,15,34,979.51
2015,01,17,15,35,979.51
2015,01,17,15,36,979.51
2015,01,17,15,37,979.51
2015,01,17,15,38,979.51
2015,01,17,15,39,979.51
2015,01,17,15,40,979.51
2015,01,17,15,41,979.51
2015,01,17,15,42,979.51
2015,01,17,15,43,979.51
2015,01,17,15,44,979.51
2015,01,17,15,45,979.51
2015,01,17,15,46,979.51
2015,01,17,15,47,979.41
2015,01,17,15,48,979.41
2015,01,17,15,49,979.41
2015,01,17,15,50,979.41
2015,01,17,15,51,979.41
2015,01,17,15,52,979.41
2015,01,17,15,53,979.41
2015,01,17,15,54,979.41
2015,01,17,15,55,979.41
2015,01,17,15,56,979.41
2015,01,17,15,57,979.41
2015,01,17,15,58,979.41
2015,01,17,15,59,979.41
2015,01,17,16,00,979.41
2015,01,17,16,01,979.41
2015,01,17,16,02,979.11
2015,01,17,16,03,979.11
2015,01,17,16,04,979.11
2015,01,17,16,05,979.11
2015,01,17,16,06,979.11
2015,01,17,16,07,979.11
2015,01,17,16,08,979.11
2015,01,17,16,09,979.11
2015,01,17,16,10,979.11
2015,01,17,16,11,979.11
2015,01,17,16,12,979.11
2015,01,17,16,13,979.11
2015,01,17,16,14,979.11
2015,01,17,16,15,979.11
2015,01,17,16,16,979.11
2015,01,17,16,17,979.04
2015,01,17,16,18,979.04
2015,01,17,16,19,979.04
2015,01,17,16,20,979.04
2015,01,17,16,21,979.04
2015,01,17,16,22,979.04
2015,01,17,16,23,979.04
2015,01,17,16,24,979.04
2015,01,17,16,25,979.04
2015,01,17,16,26,979.04
2015,01,17,16,27,979.04
2015,01,17,16,28,979.04
2015,01,17,16,29,979.04
2015,01,17,16,30,979.04
2015,01,17,16,31,979.04
2015,01,17,16,32,978.80
2015,01,17,16,33,978.80
2015,01,17,16,34,978.80
2015,01,17,16,35,978.80
2015,01,17,16,36,978.80